User: anonymous   Login
Location: Marsån
(66.4167°N, 22.2833°E)
Time: 19:29:31
(UTC+00:00)
Language:

Cosmos 1655 Rocket - Orbit

View from above orbital plane
View from above orbital plane
View from above satellite
View from above satellite

Ground track
Ground track

The orbit data is extracted from the following two-line orbital elements,

1 15752U 85041B   24141.35110490  .00000130  00000-0  12441-3 0  9992
2 15752  82.9512 240.8072 0022722 297.4253  62.4591 13.73225893952959
Epoch (UTC): 20 May 2024 08:25:35
Eccentricity: 0.0022722
inclination: 82.9512°
perigee height: 971 km
apogee height: 1005 km
right ascension of ascending node: 240.8072°
argument of perigee: 297.4253°
revolutions per day: 13.73225893
mean anomaly at epoch: 62.4591°
orbit number at epoch: 95295

The dashed part of the orbit path shows where the satellite is in the earth's shadow,  

DLR